Probability
0 0 0 0 0 0 0 0 0 0 0 0 0 0 0 0 0 0 0 0 0 0 0 0 0 0 2 4 7 9 10 12 12 8 5 3 1 1 1 0 0 0 0 0 0 0 0 0 0
0 0 0 0 0 0 0 0 0 0 0 1 1 1 0 1 1 0 0 0 0 0 0 0 0 1 3 7 11 13 14 14 13 11 8 5 2 1 0 0 0 0 0 0 0 0 0 0 0
0 0 0 0 0 0 0 0 0 0 1 2 2 1 1 1 2 1 1 1 1 1 0 0 0 1 4 8 13 16 16 14 13 12 10 7 4 2 1 1 1 1 0 0 1 1 0 0 0
0 0 0 0 0 0 0 0 1 1 2 3 3 2 1 2 4 5 5 4 3 2 1 0 0 0 3 7 11 15 16 15 13 11 9 7 5 3 3 2 2 2 1 1 2 2 1 1 1
0 0 0 0 0 0 0 1 2 2 2 4 4 2 2 3 6 9 9 7 4 3 1 1 0 1 2 5 9 13 16 18 16 13 9 6 4 3 3 3 3 3 3 3 2 2 2 2 2
0 0 0 1 1 1 1 2 2 2 2 3 5 3 3 4 8 11 11 8 5 3 2 1 1 2 3 5 9 13 16 18 18 14 9 5 4 3 3 4 4 4 3 2 1 1 1 1 2
0 0 0 1 2 2 1 2 2 2 2 3 5 5 5 8 11 11 10 7 5 3 3 2 3 3 4 5 7 10 12 13 13 11 7 4 4 4 4 5 4 3 2 1 0 0 0 0 1
0 0 0 1 3 2 2 2 4 3 3 4 5 6 10 16 17 13 10 9 6 4 4 3 4 4 4 3 4 5 6 7 7 6 4 3 3 4 5 5 5 4 2 1 0 0 0 0 0
0 0 1 3 4 3 3 5 5 4 3 4 6 9 17 24 23 17 15 14 12 10 6 3 3 4 4 3 2 3 3 3 3 3 3 3 3 3 4 6 6 4 2 1 1 0 0 0 0
0 1 3 5 5 5 7 8 7 4 3 4 7 14 22 28 27 22 19 18 18 16 11 6 4 6 7 6 7 7 5 2 2 2 3 4 5 5 5 6 7 4 1 1 1 0 0 0 1
1 1 2 4 5 8 9 9 7 5 4 4 9 17 25 27 25 21 18 18 20 19 16 12 10 12 12 11 11 11 8 5 5 5 6 7 8 9 8 8 8 6 4 2 2 1 1 1 3
3 3 2 3 6 9 10 9 9 8 7 7 11 19 23 23 21 18 16 16 19 21 20 17 15 16 17 16 15 14 11 9 9 10 10 11 11 11 12 12 11 9 7 5 3 3 2 2 3
4 4 5 6 7 10 10 9 11 12 10 9 12 16 18 18 17 16 15 15 18 21 21 18 16 18 21 22 20 16 13 12 12 12 13 13 12 12 13 15 14 10 6 5 5 4 4 3 3
3 5 8 8 8 9 10 9 11 11 10 10 11 13 13 13 15 15 14 14 16 17 16 15 16 19 23 24 22 18 15 14 13 13 13 13 13 14 15 16 14 9 6 5 4 5 6 6 6
2 4 7 7 7 6 6 7 9 10 10 11 13 14 15 14 14 15 14 14 15 15 14 14 16 19 22 22 20 16 15 13 12 12 12 13 14 15 16 14 12 9 8 6 4 5 8 9 8
1 1 3 4 4 3 3 5 9 10 11 14 16 17 18 16 15 15 15 16 18 18 17 17 15 17 21 22 19 16 13 11 10 11 12 12 13 14 14 13 11 10 8 5 4 4 6 8 8
0 0 0 1 1 1 2 5 10 12 13 15 17 19 18 15 14 14 15 17 19 20 20 18 15 16 19 20 18 15 12 10 10 11 12 12 13 13 12 11 10 9 7 4 4 4 6 7 7
0 0 0 0 0 1 2 4 8 13 13 14 16 17 16 15 13 14 15 16 19 20 20 18 16 15 15 14 14 13 11 10 11 11 12 13 12 11 9 7 7 7 6 4 3 5 6 5 6
0 0 0 0 1 2 2 2 6 12 13 12 14 15 14 13 13 13 15 18 20 21 20 18 16 13 11 11 11 12 11 10 10 11 12 11 10 9 7 5 5 5 6 4 4 6 6 5 5
0 0 0 0 1 2 2 1 5 11 13 12 14 16 14 14 14 15 17 20 22 22 19 17 15 12 10 11 12 12 11 10 10 11 11 9 8 8 7 5 5 5 5 5 6 8 8 6 6
0 0 0 0 0 1 1 0 2 7 10 11 14 17 18 19 20 19 20 22 22 20 17 14 13 12 12 12 11 10 10 10 11 12 11 9 7 7 7 5 5 5 5 6 7 9 9 9 8
0 0 0 0 0 0 0 0 0 3 6 9 13 17 21 25 27 25 23 22 20 16 13 10 9 10 11 12 11 9 9 10 11 13 12 10 8 6 5 4 4 4 5 5 6 7 7 8 8
0 0 0 0 0 0 0 0 1 2 4 6 11 17 22 26 31 29 25 22 17 12 9 8 7 7 8 10 11 12 11 11 12 13 12 10 8 6 4 3 3 3 3 3 4 5 5 6 6
0 0 0 0 0 0 0 0 1 2 3 4 10 17 23 27 30 29 25 21 16 11 9 9 8 7 6 8 12 14 14 13 14 13 11 10 8 7 5 3 2 2 1 1 3 4 5 5 6
0 0 0 0 0 0 0 0 1 2 2 4 9 15 24 29 30 28 24 20 16 13 12 12 10 9 8 8 10 13 14 14 14 13 11 8 7 7 6 4 3 2 1 1 3 5 5 5 6
0 0 0 0 0 0 0 0 0 1 3 6 10 16 26 33 33 27 22 18 16 15 14 13 11 10 9 8 9 10 11 12 12 11 10 8 7 6 5 4 3 3 1 1 3 4 4 3 3
0 0 0 0 0 0 0 0 0 1 4 8 13 18 25 30 30 24 18 14 13 13 12 11 10 8 8 7 7 8 9 10 10 10 9 8 7 5 4 3 3 2 1 1 1 1 1 1 1
0 0 0 0 0 0 0 0 1 3 5 8 13 17 19 22 23 19 14 11 10 10 9 9 8 7 6 6 6 8 9 9 9 9 8 7 5 3 2 2 2 1 1 0 0 0 0 0 0
0 0 0 0 0 0 0 0 1 3 4 7 11 13 14 16 16 14 11 11 9 8 7 6 6 6 6 5 6 7 8 8 7 7 7 6 5 3 1 1 1 0 0 0 0 0 0 0 0
0 0 0 0 0 0 0 0 1 2 3 6 9 10 12 14 12 10 10 11 9 7 5 4 5 6 6 5 5 6 7 7 6 6 6 5 4 3 1 0 0 0 0 0 0 0 0 0 0
Wind_Speed
9 8 6 6 8 7 3 4 3 5 4 4 4 2 3 5 4 7 8 11 13 14 15 14 11 10 10 11 12 13 13 13 13 12 12 11 10 9 8 8 7 6 6 6 6 5 5 5 4
6 6 7 7 8 7 5 4 4 4 6 7 6 4 4 7 7 9 10 12 14 14 13 13 13 11 11 11 12 12 13 13 12 12 11 10 10 8 8 7 6 6 6 5 5 5 4 4 3
7 7 7 7 7 5 6 6 6 7 6 5 5 4 4 6 6 7 10 14 14 13 12 13 13 12 11 11 11 12 13 12 12 11 10 9 9 8 7 6 6 5 5 5 4 4 4 3 3
6 7 7 8 7 1 3 6 6 8 6 4 5 7 7 6 4 9 13 14 14 13 12 14 12 12 11 11 11 11 12 11 11 10 9 8 8 7 6 6 5 5 4 4 3 3 3 2 2
7 7 9 9 5 4 3 4 5 5 5 5 5 7 8 6 8 13 13 13 12 12 11 14 11 11 11 11 11 11 11 10 9 9 8 7 6 6 5 5 4 3 3 3 3 2 2 2 2
7 7 9 9 7 6 5 4 5 5 6 6 6 8 8 6 10 12 12 12 11 11 11 13 12 11 10 10 10 10 9 9 8 8 7 6 5 5 4 3 3 2 2 2 2 2 2 2 3
8 9 9 8 8 7 5 3 4 5 6 5 4 7 8 8 9 11 11 11 11 10 10 11 12 11 11 10 9 9 8 8 7 7 6 6 5 4 3 3 2 1 1 1 1 1 2 3 3
6 7 8 8 8 7 6 5 3 3 5 5 3 5 9 10 10 10 10 10 9 9 8 9 9 9 10 10 10 9 8 7 6 6 5 5 5 5 3 3 2 1 0 1 1 2 3 3 4
7 9 8 8 7 7 8 8 5 4 7 6 4 6 12 15 12 11 10 9 9 7 6 7 8 7 7 8 9 8 8 6 5 5 5 4 4 4 4 2 3 1 0 1 1 2 3 5 7
8 8 5 3 3 7 8 7 7 7 8 7 8 11 14 14 12 11 10 10 9 8 6 5 6 6 6 5 6 4 4 5 3 2 3 2 1 0 0 6 2 1 1 3 1 3 6 8 5
5 3 5 4 3 5 7 7 6 6 6 6 9 13 14 13 12 10 9 9 8 8 6 5 5 5 5 4 4 2 2 2 2 2 1 0 1 1 1 1 2 3 4 3 2 5 4 4 3
5 4 3 4 4 5 6 6 6 3 4 6 9 13 14 12 11 10 10 9 8 7 6 5 5 5 4 3 3 2 2 2 1 2 0 0 0 1 1 1 2 2 2 2 3 2 3 4 4
6 6 5 4 4 5 5 6 5 6 6 8 11 12 12 10 10 9 8 8 7 7 6 5 5 5 4 3 2 2 2 2 2 1 1 1 1 1 1 1 2 3 2 2 3 3 3 4 4
6 7 6 6 6 6 7 7 5 6 7 10 11 11 10 9 9 8 7 7 7 6 6 5 5 5 4 3 2 2 2 2 1 1 1 0 1 1 1 1 1 2 2 3 4 3 3 3 3
7 8 8 5 6 6 7 6 4 7 9 10 10 10 9 8 8 8 7 7 6 6 6 5 5 5 4 4 3 2 2 1 1 2 1 1 1 1 1 1 1 2 2 2 3 4 3 3 3
8 9 9 7 6 6 9 7 7 8 10 10 9 9 8 8 8 6 6 6 5 5 5 5 4 5 5 3 2 2 2 2 1 1 1 1 1 1 2 2 2 2 2 2 2 3 3 3 3
10 9 8 9 6 6 8 5 8 8 9 9 9 8 8 8 7 6 6 5 5 5 5 5 5 5 4 4 3 3 2 2 1 1 1 1 1 2 2 2 2 3 2 2 3 2 3 3 3
8 7 7 8 8 8 7 5 8 9 10 9 9 9 8 8 7 7 6 5 5 5 5 4 5 4 4 3 3 2 2 2 1 1 2 1 1 1 2 1 2 3 2 2 3 3 3 3 3
4 5 6 5 5 7 7 7 8 10 10 10 10 9 9 8 7 7 7 6 5 5 5 4 4 4 3 2 2 2 2 2 1 2 2 1 2 2 2 3 2 3 2 3 4 4 3 2 2
6 6 6 6 5 5 6 7 7 10 11 10 10 9 9 9 8 7 7 7 6 5 5 4 4 3 2 2 1 1 1 1 1 1 2 2 2 2 2 3 2 2 2 2 3 3 4 2 2
6 5 4 5 6 6 6 8 10 10 10 10 9 9 9 9 10 9 8 7 6 6 5 4 4 4 3 3 2 2 2 2 1 1 1 2 2 2 3 3 3 3 3 2 3 3 3 3 3
5 2 4 6 8 6 8 8 8 10 11 11 11 10 10 9 9 9 8 7 6 5 4 4 4 3 3 2 2 2 1 1 1 1 2 2 2 2 2 3 3 3 3 3 4 3 4 4 3
0 2 5 6 7 6 8 10 4 8 9 10 11 11 11 10 10 10 8 8 6 5 4 4 4 4 3 2 2 2 1 1 1 1 2 1 2 2 3 3 3 3 3 3 4 3 4 3 4
5 6 5 7 9 10 7 9 5 4 6 6 7 10 10 10 10 9 8 7 6 5 5 5 5 4 3 3 2 2 2 1 1 1 1 0 0 1 3 3 3 3 3 3 3 3 3 3 4
8 7 6 8 8 6 3 7 3 2 0 2 4 7 9 9 9 9 9 8 7 6 5 5 5 4 4 3 3 2 2 2 2 1 1 1 1 2 3 3 3 3 3 3 3 3 3 3 4
8 9 8 7 7 4 5 6 2 4 2 1 2 5 8 9 8 8 8 8 8 7 6 5 5 4 4 3 3 2 1 1 0 0 1 1 1 2 3 3 3 3 4 4 3 3 2 2 3
7 8 7 10 10 9 5 2 3 4 3 3 4 6 7 8 8 8 7 7 7 7 6 5 5 4 3 3 3 2 2 0 0 0 1 1 2 2 3 3 3 3 3 4 4 3 3 3 3
6 5 5 9 8 9 7 6 2 3 3 4 5 5 6 8 8 8 7 7 6 5 5 4 4 4 3 3 3 2 2 1 1 1 2 2 2 3 3 3 3 3 3 4 4 3 3 3 3
6 6 7 8 8 10 10 3 5 2 2 4 5 6 7 8 8 7 6 7 6 5 5 4 4 4 3 2 2 2 2 2 2 1 1 2 2 2 2 3 3 3 3 3 3 4 3 4 4
7 8 8 9 9 9 10 3 5 3 3 4 5 7 7 8 8 7 7 7 6 5 4 4 3 3 3 2 2 2 2 3 2 2 2 2 2 2 2 3 3 3 3 3 4 4 4 4 4
Wind_Direction
222 215 224 233 234 225 191 123 117 134 115 97 100 93 68 42 15 69 113 138 133 135 134 143 140 136 132 129 127 127 128 130 131 133 135 135 134 133 132 131 130 128 127 125 123 120 116 116 120
215 207 226 235 242 208 161 132 136 110 106 120 113 101 89 73 58 98 130 135 136 133 139 141 138 140 136 132 130 130 131 132 133 134 135 135 135 135 135 134 133 131 130 130 130 128 125 127 131
212 227 242 231 236 230 137 129 114 112 127 144 120 80 60 69 98 116 132 139 135 133 137 132 144 143 140 136 133 131 131 133 134 135 135 136 136 136 137 137 137 136 135 138 138 136 138 148 155
207 212 231 235 206 142 118 125 129 139 135 134 130 103 85 56 98 121 134 139 137 139 140 132 147 144 142 139 134 133 132 133 134 135 137 139 141 142 143 145 145 145 145 145 145 145 148 167 186
228 226 215 213 185 136 139 143 161 164 137 132 133 111 95 69 99 122 135 140 141 139 136 134 140 142 143 140 135 133 131 131 132 134 137 140 141 143 147 149 148 152 153 154 154 155 169 190 215
214 223 215 196 166 147 142 159 176 157 135 130 136 121 92 100 117 130 136 140 138 136 136 133 139 140 139 138 133 129 127 127 128 130 131 132 132 135 139 142 149 160 165 173 180 192 204 217 230
230 221 217 190 166 154 142 152 174 159 143 124 134 120 114 121 125 133 135 137 136 137 137 141 147 145 141 132 128 126 124 124 124 124 124 125 126 127 130 132 144 157 167 172 198 229 237 241 248
252 230 205 194 176 149 142 149 134 145 114 102 127 136 133 137 138 136 134 134 133 134 137 141 144 144 150 145 134 130 127 124 125 124 129 141 150 149 143 163 122 118 162 223 255 267 261 255 249
241 228 196 184 177 145 149 151 130 116 119 110 88 83 114 133 140 141 139 137 133 129 132 135 139 145 150 144 137 147 141 134 150 147 141 184 191 172 170 99 92 82 344 296 294 281 268 256 226
227 216 168 143 157 144 147 149 142 152 141 128 116 105 121 137 144 149 147 145 141 140 139 137 140 147 152 141 140 158 158 141 170 135 159 191 158 213 307 113 121 159 247 232 227 266 248 249 240
214 178 129 136 134 145 140 134 150 164 145 144 146 139 139 145 151 153 149 149 147 145 141 140 141 144 148 142 146 145 141 137 157 131 161 197 247 217 279 204 180 211 235 248 219 243 267 281 293
169 131 139 133 135 157 144 136 130 112 95 113 133 140 146 153 156 156 155 154 150 148 144 143 146 145 141 129 131 140 144 147 145 130 202 195 235 290 325 304 313 287 283 295 288 278 293 291 285
166 141 135 142 152 143 138 130 117 107 106 119 130 142 149 154 155 159 158 153 151 151 152 151 153 142 135 133 148 141 143 143 128 112 101 335 306 324 326 323 320 308 308 291 292 299 302 288 283
143 140 143 148 148 152 148 136 137 124 131 133 140 147 152 156 160 161 159 157 155 153 154 149 150 143 142 146 143 137 142 129 117 103 88 358 327 336 294 288 303 309 311 318 298 298 291 292 303
150 152 149 153 163 160 162 155 151 141 149 146 148 150 153 157 163 163 161 158 158 156 155 151 150 140 141 145 147 140 124 122 113 110 101 57 341 337 298 304 300 325 319 303 296 299 286 277 281
175 185 169 150 171 174 213 177 148 156 166 159 158 158 160 162 165 160 155 150 152 152 147 143 142 139 141 135 132 116 100 107 107 108 107 83 14 338 306 318 331 318 299 301 299 289 289 292 293
187 187 161 149 174 183 221 167 151 171 178 171 170 170 170 165 165 154 150 146 145 146 144 141 138 139 138 136 128 119 114 103 102 90 67 65 22 344 320 336 349 304 303 309 301 316 304 302 306
169 168 166 163 162 196 209 168 161 180 189 186 182 179 179 178 170 156 149 144 143 142 141 139 142 138 147 143 131 121 115 118 101 82 62 36 25 2 330 331 348 318 320 312 313 306 293 296 304
173 179 168 141 151 200 200 186 179 185 197 199 196 190 185 182 164 155 151 148 146 143 145 148 144 148 165 155 156 152 148 140 114 88 62 37 14 11 352 345 347 319 329 327 320 310 296 293 311
196 191 167 147 155 215 197 202 193 195 205 208 202 194 189 181 168 164 162 157 152 147 147 148 152 155 172 151 158 147 133 135 93 72 69 39 28 5 6 357 331 338 321 322 323 323 313 309 299
206 218 189 166 162 198 212 212 204 201 208 210 210 202 195 188 180 175 173 168 160 156 156 154 151 154 157 159 162 156 160 173 160 138 89 48 32 24 2 349 342 337 317 328 319 315 314 306 291
205 203 215 197 213 205 217 253 201 197 202 208 211 209 203 192 186 183 177 169 162 156 153 150 146 143 141 161 164 170 187 166 82 33 55 49 40 19 7 350 344 333 329 325 309 342 308 297 298
220 175 216 223 244 252 221 259 225 184 214 214 210 210 206 194 188 187 178 169 161 154 154 147 142 140 140 146 158 182 175 132 111 92 86 28 59 25 17 3 351 337 327 333 324 323 313 305 304
162 184 200 224 238 245 232 253 256 195 232 223 203 203 201 193 187 181 168 160 158 160 157 151 149 142 148 161 165 166 151 153 141 129 114 269 72 43 30 6 356 336 335 328 315 303 300 307 306
210 227 231 228 230 249 165 248 286 78 66 238 205 195 187 180 176 173 169 167 164 165 162 162 159 154 154 158 167 170 168 182 186 215 165 302 2 28 19 359 343 335 330 320 315 301 315 312 306
220 246 268 281 284 287 195 249 55 82 81 172 174 165 162 164 168 171 172 171 167 167 166 168 167 163 157 151 152 151 176 210 117 4 313 343 356 15 3 341 338 333 332 330 325 311 321 320 315
233 244 290 283 278 276 263 238 168 153 159 149 141 148 157 159 158 160 161 162 163 165 164 166 162 153 151 147 153 155 160 157 54 211 271 26 22 12 3 346 340 334 334 334 324 339 338 329 318
283 282 255 265 278 280 274 262 273 157 167 159 157 158 155 151 148 147 150 151 153 154 153 154 151 141 146 157 171 154 144 133 108 47 46 35 22 18 359 352 348 345 341 340 334 336 353 330 328
217 230 257 272 285 287 290 317 46 64 149 169 161 157 156 148 146 145 147 146 143 142 144 150 153 153 154 158 152 138 133 115 103 87 66 53 34 19 359 353 353 353 348 345 343 345 344 335 331
267 264 257 266 269 269 285 322 81 82 124 154 153 150 148 146 146 145 144 140 140 144 145 146 152 153 148 134 131 126 119 114 112 92 66 52 36 16 17 1 5 2 3 360 354 348 349 339 332